QPF
0.00 0.00 0.00 0.00 0.00 0.00 0.00 0.00 0.00 0.00 0.00 0.00 0.00 0.00 0.00 0.00 0.00 0.00 0.00 0.00 0.00 0.00 0.00 0.00 0.00 0.00 0.00 0.00 0.00 0.00 0.00 0.00 0.00 0.00 0.00 0.00 0.00 0.00 0.00 0.00 0.00 0.00 0.00 0.00 0.00
0.00 0.00 0.00 0.00 0.00 0.00 0.00 0.00 0.00 0.00 0.00 0.00 0.00 0.00 0.00 0.00 0.00 0.00 0.00 0.00 0.00 0.00 0.00 0.00 0.00 0.00 0.00 0.00 0.00 0.00 0.00 0.00 0.00 0.00 0.00 0.00 0.00 0.00 0.00 0.00 0.00 0.00 0.00 0.00 0.00
0.00 0.00 0.00 0.00 0.00 0.00 0.00 0.00 0.00 0.00 0.00 0.00 0.00 0.00 0.00 0.00 0.00 0.00 0.00 0.00 0.00 0.00 0.00 0.00 0.00 0.00 0.00 0.00 0.00 0.00 0.00 0.00 0.00 0.00 0.00 0.00 0.00 0.00 0.00 0.00 0.00 0.00 0.00 0.00 0.00
0.00 0.00 0.00 0.00 0.00 0.00 0.00 0.00 0.00 0.00 0.00 0.00 0.00 0.00 0.00 0.00 0.00 0.00 0.00 0.00 0.00 0.00 0.00 0.00 0.00 0.00 0.00 0.00 0.00 0.00 0.00 0.00 0.00 0.00 0.00 0.00 0.00 0.00 0.00 0.00 0.00 0.00 0.00 0.00 0.00
0.00 0.00 0.00 0.00 0.00 0.00 0.00 0.00 0.00 0.00 0.00 0.00 0.00 0.00 0.00 0.00 0.00 0.00 0.00 0.00 0.00 0.00 0.00 0.00 0.00 0.00 0.00 0.00 0.00 0.00 0.00 0.00 0.00 0.00 0.00 0.00 0.00 0.00 0.00 0.00 0.00 0.00 0.00 0.00 0.00
0.00 0.00 0.00 0.00 0.00 0.00 0.00 0.00 0.00 0.00 0.00 0.00 0.00 0.00 0.00 0.00 0.00 0.00 0.00 0.00 0.00 0.00 0.00 0.00 0.00 0.00 0.00 0.00 0.00 0.00 0.00 0.00 0.00 0.00 0.00 0.00 0.00 0.00 0.00 0.00 0.00 0.00 0.00 0.00 0.00
0.00 0.00 0.00 0.00 0.00 0.00 0.00 0.00 0.00 0.00 0.00 0.00 0.00 0.00 0.00 0.00 0.00 0.00 0.00 0.00 0.00 0.00 0.00 0.00 0.00 0.00 0.00 0.00 0.00 0.00 0.00 0.00 0.00 0.00 0.00 0.00 0.00 0.00 0.00 0.00 0.00 0.00 0.00 0.00 0.00
0.00 0.00 0.00 0.00 0.00 0.00 0.00 0.00 0.00 0.00 0.00 0.00 0.00 0.00 0.00 0.00 0.00 0.00 0.00 0.00 0.00 0.00 0.00 0.00 0.00 0.00 0.00 0.00 0.00 0.00 0.00 0.00 0.00 0.00 0.00 0.00 0.00 0.00 0.00 0.00 0.00 0.00 0.00 0.00 0.00
0.00 0.00 0.00 0.00 0.00 0.00 0.00 0.00 0.00 0.00 0.00 0.00 0.00 0.00 0.00 0.00 0.00 0.00 0.00 0.00 0.00 0.00 0.00 0.00 0.00 0.00 0.00 0.00 0.00 0.00 0.00 0.00 0.00 0.00 0.00 0.00 0.00 0.00 0.00 0.00 0.00 0.00 0.00 0.00 0.00
0.00 0.00 0.00 0.00 0.00 0.00 0.00 0.00 0.00 0.00 0.00 0.00 0.00 0.00 0.00 0.00 0.00 0.00 0.00 0.00 0.00 0.00 0.00 0.00 0.00 0.00 0.00 0.00 0.00 0.00 0.00 0.00 0.00 0.00 0.00 0.00 0.00 0.00 0.00 0.00 0.00 0.00 0.00 0.00 0.00
0.00 0.00 0.00 0.00 0.00 0.00 0.00 0.00 0.00 0.00 0.00 0.00 0.00 0.00 0.00 0.00 0.00 0.00 0.00 0.00 0.00 0.00 0.00 0.00 0.00 0.00 0.00 0.00 0.00 0.00 0.00 0.00 0.00 0.00 0.00 0.00 0.00 0.00 0.00 0.00 0.00 0.00 0.00 0.00 0.00
0.00 0.00 0.00 0.00 0.00 0.00 0.00 0.00 0.00 0.00 0.00 0.00 0.00 0.00 0.00 0.00 0.00 0.00 0.00 0.00 0.00 0.00 0.00 0.00 0.00 0.00 0.00 0.00 0.00 0.00 0.00 0.00 0.00 0.00 0.00 0.00 0.00 0.00 0.00 0.00 0.00 0.00 0.00 0.00 0.00
0.00 0.00 0.00 0.00 0.00 0.00 0.00 0.00 0.00 0.00 0.00 0.00 0.00 0.00 0.00 0.00 0.00 0.00 0.00 0.00 0.00 0.00 0.00 0.00 0.00 0.00 0.00 0.00 0.00 0.00 0.00 0.00 0.00 0.00 0.00 0.00 0.00 0.00 0.00 0.00 0.00 0.00 0.00 0.00 0.00
0.00 0.00 0.00 0.00 0.00 0.00 0.00 0.00 0.00 0.00 0.00 0.00 0.00 0.00 0.00 0.00 0.00 0.00 0.00 0.00 0.00 0.00 0.00 0.00 0.00 0.00 0.00 0.00 0.00 0.00 0.00 0.00 0.00 0.00 0.00 0.00 0.04 0.01 0.00 0.00 0.00 0.00 0.00 0.00 0.00
0.00 0.00 0.00 0.00 0.00 0.00 0.00 0.00 0.00 0.00 0.00 0.00 0.00 0.00 0.00 0.00 0.00 0.00 0.00 0.00 0.00 0.00 0.00 0.00 0.00 0.00 0.00 0.00 0.00 0.00 0.00 0.00 0.00 0.00 0.01 0.01 0.02 0.03 0.00 0.00 0.00 0.00 0.00 0.00 0.00
0.00 0.00 0.00 0.00 0.00 0.00 0.00 0.00 0.00 0.00 0.00 0.00 0.00 0.00 0.00 0.00 0.00 0.00 0.00 0.00 0.00 0.00 0.00 0.00 0.00 0.00 0.00 0.00 0.00 0.00 0.00 0.00 0.00 0.00 0.05 0.01 0.01 0.03 0.00 0.00 0.00 0.00 0.00 0.00 0.00
0.00 0.00 0.00 0.00 0.00 0.00 0.00 0.00 0.00 0.00 0.00 0.00 0.00 0.00 0.00 0.00 0.00 0.00 0.00 0.00 0.00 0.00 0.00 0.00 0.00 0.00 0.00 0.00 0.00 0.00 0.00 0.00 0.00 0.00 0.05 0.00 0.01 0.02 0.00 0.00 0.00 0.00 0.00 0.00 0.00
0.00 0.00 0.00 0.00 0.00 0.00 0.00 0.00 0.00 0.00 0.00 0.00 0.00 0.00 0.00 0.00 0.00 0.00 0.00 0.00 0.00 0.00 0.00 0.00 0.00 0.00 0.00 0.00 0.00 0.00 0.00 0.00 0.00 0.00 0.00 0.01 0.01 0.01 0.00 0.00 0.00 0.00 0.00 0.00 0.00
0.00 0.00 0.00 0.00 0.00 0.00 0.00 0.00 0.00 0.00 0.00 0.00 0.00 0.00 0.00 0.00 0.00 0.00 0.00 0.00 0.00 0.00 0.00 0.00 0.00 0.00 0.00 0.00 0.00 0.00 0.00 0.00 0.00 0.00 0.00 0.02 0.02 0.03 0.00 0.00 0.00 0.00 0.00 0.00 0.00
0.00 0.00 0.00 0.00 0.00 0.00 0.00 0.00 0.00 0.00 0.00 0.00 0.00 0.00 0.00 0.00 0.00 0.00 0.00 0.00 0.00 0.00 0.00 0.00 0.00 0.00 0.00 0.00 0.00 0.00 0.00 0.00 0.00 0.00 0.00 0.00 0.01 0.03 0.00 0.00 0.00 0.00 0.00 0.00 0.00
0.00 0.00 0.00 0.00 0.00 0.00 0.00 0.00 0.00 0.00 0.00 0.00 0.00 0.00 0.00 0.00 0.00 0.00 0.00 0.00 0.00 0.00 0.00 0.00 0.00 0.00 0.00 0.00 0.00 0.00 0.00 0.00 0.00 0.00 0.00 0.00 0.00 0.00 0.00 0.00 0.00 0.00 0.00 0.00 0.00
0.00 0.00 0.00 0.00 0.00 0.00 0.00 0.00 0.00 0.00 0.00 0.00 0.00 0.00 0.00 0.00 0.00 0.00 0.00 0.00 0.00 0.00 0.00 0.00 0.00 0.00 0.00 0.00 0.00 0.00 0.00 0.00 0.00 0.00 0.00 0.00 0.01 0.00 0.00 0.00 0.00 0.00 0.00 0.00 0.00
0.00 0.00 0.00 0.00 0.00 0.00 0.00 0.00 0.00 0.00 0.00 0.00 0.00 0.00 0.00 0.00 0.00 0.00 0.00 0.00 0.00 0.00 0.00 0.00 0.00 0.00 0.00 0.00 0.00 0.00 0.00 0.00 0.00 0.00 0.00 0.00 0.00 0.00 0.00 0.00 0.00 0.00 0.00 0.00 0.00
0.00 0.00 0.00 0.00 0.00 0.00 0.00 0.00 0.00 0.00 0.00 0.00 0.00 0.00 0.00 0.00 0.00 0.00 0.00 0.00 0.00 0.00 0.00 0.00 0.00 0.00 0.00 0.00 0.00 0.00 0.00 0.00 0.00 0.00 0.00 0.00 0.00 0.00 0.00 0.00 0.00 0.00 0.00 0.00 0.00
0.00 0.00 0.00 0.00 0.00 0.00 0.00 0.00 0.00 0.00 0.00 0.00 0.00 0.00 0.00 0.00 0.00 0.00 0.00 0.00 0.00 0.00 0.00 0.00 0.00 0.00 0.00 0.00 0.00 0.00 0.00 0.00 0.00 0.00 0.00 0.00 0.00 0.00 0.00 0.00 0.01 0.00 0.00 0.00 0.00
0.00 0.00 0.00 0.00 0.00 0.00 0.00 0.00 0.00 0.00 0.00 0.00 0.00 0.00 0.00 0.00 0.00 0.00 0.00 0.00 0.00 0.00 0.00 0.00 0.00 0.00 0.00 0.00 0.00 0.00 0.00 0.00 0.00 0.00 0.00 0.00 0.00 0.00 0.00 0.00 0.00 0.00 0.00 0.00 0.01
0.00 0.00 0.00 0.00 0.00 0.00 0.00 0.00 0.00 0.00 0.00 0.00 0.00 0.00 0.00 0.00 0.00 0.00 0.00 0.00 0.00 0.00 0.00 0.00 0.00 0.00 0.00 0.00 0.00 0.00 0.00 0.00 0.00 0.00 0.00 0.00 0.00 0.00 0.00 0.00 0.00 0.01 0.00 0.01 0.01
MSLP
1018.83 1018.62 1018.41 1018.26 1018.10 1017.92 1017.69 1017.49 1017.29 1017.02 1016.56 1016.25 1016.08 1015.42 1014.92 1014.98 1014.69 1013.62 1013.61 1015.03 1014.46 1013.30 1012.95 1011.34 1010.07 1008.81 1008.12 1007.38 1007.21 1006.82 1006.62 1006.03 1006.66 1006.51 1007.95 1009.28 1010.20 1011.23 1012.85 1014.43 1015.23 1016.24 1016.99 1017.32 1016.88
1019.03 1018.82 1018.62 1018.46 1018.26 1018.07 1017.84 1017.60 1017.36 1017.03 1016.47 1016.24 1016.11 1015.78 1015.07 1015.13 1014.31 1013.65 1014.62 1014.14 1013.71 1013.15 1012.26 1010.27 1009.51 1008.66 1007.50 1007.11 1006.99 1007.00 1006.88 1007.77 1008.94 1009.20 1009.33 1010.78 1012.24 1013.05 1013.33 1015.27 1016.24 1016.97 1017.36 1017.62 1017.40
1019.22 1019.05 1018.85 1018.64 1018.46 1018.31 1018.01 1017.77 1017.51 1017.18 1016.62 1015.95 1015.72 1015.46 1015.07 1014.86 1013.90 1014.62 1014.32 1013.64 1013.05 1012.66 1011.62 1009.89 1009.30 1008.45 1007.57 1007.75 1007.96 1008.14 1008.76 1009.09 1010.12 1010.82 1010.27 1011.73 1013.57 1015.11 1015.02 1016.36 1017.35 1017.77 1018.01 1018.11 1017.98
1019.43 1019.25 1019.02 1018.90 1018.72 1018.47 1018.17 1017.83 1017.57 1017.34 1016.98 1016.13 1015.33 1014.96 1014.72 1014.89 1015.07 1015.30 1014.55 1013.64 1012.60 1011.26 1010.19 1009.67 1008.91 1008.51 1008.43 1008.57 1008.79 1009.00 1009.92 1010.49 1011.41 1011.89 1011.97 1012.72 1014.01 1016.09 1017.13 1017.92 1018.22 1018.47 1018.74 1018.80 1018.69
1019.65 1019.50 1019.29 1019.03 1018.81 1018.60 1018.40 1018.02 1017.58 1017.27 1016.79 1016.25 1015.49 1014.67 1014.27 1014.16 1015.55 1015.32 1014.58 1013.50 1012.62 1012.33 1011.79 1011.12 1010.66 1009.98 1009.72 1009.81 1009.97 1009.86 1010.55 1011.39 1012.33 1013.03 1013.59 1014.09 1015.39 1017.00 1018.29 1018.68 1018.84 1019.06 1019.32 1019.49 1019.58
1019.77 1019.57 1019.34 1019.09 1018.94 1018.77 1018.64 1018.36 1017.76 1017.18 1016.97 1016.18 1015.41 1014.63 1014.56 1014.68 1016.04 1015.28 1014.96 1014.38 1014.01 1013.42 1013.07 1012.74 1012.25 1011.50 1011.06 1011.45 1011.36 1011.40 1011.44 1012.09 1012.92 1013.33 1014.16 1015.01 1016.03 1017.43 1019.26 1019.41 1019.68 1019.90 1020.17 1020.31 1020.47
1019.94 1019.64 1019.39 1019.24 1019.07 1018.84 1018.58 1018.26 1017.75 1017.42 1017.12 1016.73 1016.38 1015.73 1015.49 1016.92 1016.42 1015.35 1015.33 1015.04 1014.75 1014.51 1014.18 1013.89 1013.37 1013.13 1012.56 1012.11 1012.51 1012.23 1012.37 1012.49 1013.23 1014.27 1014.91 1016.02 1016.77 1019.22 1020.19 1020.40 1020.72 1020.88 1021.12 1021.12 1021.20
1020.07 1019.81 1019.56 1019.42 1019.15 1018.81 1018.52 1018.13 1017.79 1017.27 1016.94 1016.83 1016.73 1015.74 1016.37 1017.35 1016.73 1015.82 1015.10 1014.91 1015.17 1014.92 1014.89 1014.52 1014.60 1014.41 1014.40 1013.30 1013.06 1012.77 1012.61 1012.73 1013.52 1014.52 1015.77 1016.99 1018.13 1020.21 1021.17 1021.56 1022.01 1022.16 1022.15 1022.05 1022.06
1020.23 1019.92 1019.62 1019.44 1019.05 1018.71 1018.35 1017.99 1017.71 1017.50 1017.21 1016.76 1016.36 1015.90 1016.92 1017.57 1017.08 1016.49 1015.45 1014.96 1015.26 1015.43 1015.08 1015.10 1015.73 1016.48 1016.17 1014.54 1013.70 1014.46 1015.31 1015.34 1014.82 1015.52 1016.66 1017.68 1018.81 1020.31 1021.72 1022.48 1023.16 1023.44 1023.36 1023.03 1022.96
1020.38 1020.08 1019.79 1019.58 1019.05 1018.84 1018.56 1018.65 1017.95 1017.69 1016.79 1015.54 1016.01 1016.38 1017.71 1017.86 1017.76 1017.09 1015.94 1015.01 1014.93 1015.45 1016.03 1016.59 1017.25 1017.52 1017.90 1017.93 1018.30 1018.33 1017.86 1017.50 1017.19 1017.32 1018.01 1018.57 1019.74 1020.97 1022.39 1023.46 1023.99 1024.26 1024.31 1024.09 1023.94
1020.55 1020.27 1019.95 1019.71 1019.43 1019.06 1018.50 1017.80 1017.79 1017.49 1017.01 1017.16 1017.84 1017.90 1018.35 1017.91 1017.98 1017.67 1016.61 1016.04 1015.30 1016.11 1016.53 1018.14 1018.37 1018.92 1019.88 1020.30 1020.65 1020.02 1019.29 1018.49 1018.46 1019.22 1019.70 1019.76 1020.63 1021.89 1023.05 1023.84 1024.44 1024.64 1024.62 1024.90 1025.06
1020.76 1020.52 1020.11 1019.80 1019.59 1019.23 1018.94 1017.18 1016.62 1017.27 1017.77 1018.15 1018.30 1018.67 1018.77 1018.67 1018.31 1018.52 1017.46 1016.95 1017.07 1017.84 1018.35 1018.27 1020.17 1021.06 1021.30 1021.31 1021.44 1020.94 1020.40 1020.52 1020.64 1020.65 1020.81 1020.71 1021.30 1022.89 1023.94 1024.33 1024.82 1024.99 1025.39 1025.50 1025.38
1020.90 1020.61 1020.33 1020.03 1019.83 1019.33 1018.27 1017.65 1017.12 1017.42 1017.27 1018.31 1018.62 1018.71 1019.01 1019.15 1019.32 1019.13 1018.93 1017.97 1018.01 1018.32 1019.55 1020.49 1022.02 1022.12 1022.09 1022.08 1022.08 1021.64 1021.59 1021.42 1020.88 1020.16 1020.12 1020.94 1022.87 1024.52 1024.78 1024.89 1025.25 1025.70 1026.09 1026.15 1026.02
1020.95 1020.59 1020.34 1020.21 1020.32 1018.65 1018.26 1018.18 1018.25 1018.59 1017.40 1018.23 1018.35 1019.32 1019.06 1018.95 1019.49 1019.81 1019.84 1019.03 1019.11 1019.30 1019.76 1021.30 1022.57 1022.73 1022.75 1022.94 1022.97 1022.04 1022.21 1021.35 1020.25 1019.83 1020.59 1021.96 1024.40 1025.67 1025.56 1025.75 1026.01 1026.26 1026.43 1026.54 1026.53
1021.03 1020.55 1020.26 1020.27 1018.91 1018.22 1018.39 1018.66 1018.71 1018.77 1017.79 1018.81 1019.08 1019.72 1019.32 1019.67 1020.15 1020.17 1020.13 1019.43 1019.98 1020.45 1020.21 1022.68 1022.95 1023.24 1023.30 1023.67 1023.71 1023.55 1022.35 1020.99 1019.91 1020.40 1021.95 1023.45 1024.71 1026.94 1026.76 1026.74 1026.78 1026.78 1026.70 1026.53 1026.50
1021.19 1020.71 1020.23 1019.38 1019.10 1018.87 1018.98 1019.03 1019.15 1018.71 1018.25 1018.58 1018.90 1019.09 1018.94 1019.79 1020.28 1020.02 1019.79 1019.93 1020.28 1020.07 1020.75 1022.03 1023.03 1023.96 1024.52 1024.36 1024.33 1023.98 1022.87 1021.36 1020.77 1022.26 1024.35 1025.67 1026.27 1027.84 1028.09 1027.92 1027.30 1027.09 1026.71 1026.54 1026.45
1021.26 1020.64 1019.77 1019.36 1019.23 1019.52 1019.43 1019.19 1018.67 1018.38 1018.85 1018.39 1018.64 1019.11 1019.17 1019.88 1020.19 1020.34 1020.01 1020.75 1021.29 1020.83 1020.94 1021.37 1023.06 1023.91 1024.75 1024.96 1024.68 1024.33 1023.72 1023.11 1023.48 1023.85 1025.13 1026.58 1026.66 1028.41 1028.30 1027.82 1027.43 1027.01 1026.71 1026.68 1026.56
1021.25 1021.15 1020.53 1020.19 1019.95 1019.88 1019.55 1018.72 1018.78 1018.25 1018.28 1018.91 1018.95 1019.25 1019.39 1020.18 1020.42 1020.66 1020.82 1021.48 1022.60 1022.85 1022.14 1022.46 1022.83 1024.15 1025.33 1025.66 1025.54 1025.18 1025.41 1025.99 1025.82 1025.69 1025.95 1026.97 1027.85 1028.44 1028.64 1027.72 1027.39 1027.00 1026.85 1026.80 1026.82
1021.36 1020.29 1020.03 1020.50 1020.38 1020.12 1019.42 1019.25 1018.91 1018.03 1018.59 1018.73 1018.94 1018.65 1018.91 1020.00 1020.96 1020.68 1021.37 1022.65 1023.70 1024.13 1024.14 1023.90 1023.58 1024.39 1025.20 1025.56 1025.73 1025.62 1025.99 1026.74 1026.80 1026.69 1026.54 1026.88 1028.49 1029.03 1028.31 1027.80 1027.43 1027.07 1026.93 1026.96 1026.99
1020.82 1019.63 1020.11 1020.43 1020.45 1020.14 1019.21 1019.30 1019.44 1019.52 1019.43 1019.30 1018.78 1019.53 1019.22 1020.07 1020.47 1020.87 1021.98 1023.74 1024.25 1025.08 1025.26 1025.02 1024.49 1023.86 1024.78 1025.51 1025.57 1026.28 1026.61 1026.95 1027.18 1027.05 1027.00 1027.19 1027.27 1027.94 1027.88 1027.74 1027.49 1027.30 1027.22 1027.20 1027.25
1020.89 1019.20 1020.29 1020.24 1020.38 1019.67 1019.27 1019.56 1019.98 1020.24 1020.11 1020.03 1019.75 1019.74 1020.25 1020.72 1021.30 1021.65 1022.73 1024.18 1025.00 1025.31 1025.79 1025.40 1025.49 1024.31 1023.91 1025.22 1025.70 1026.25 1026.61 1027.42 1027.83 1027.65 1028.13 1027.30 1027.31 1027.83 1028.14 1027.71 1027.38 1027.27 1027.31 1027.41 1027.46
1020.00 1018.96 1020.08 1020.18 1019.76 1019.02 1019.53 1019.82 1020.34 1020.69 1020.97 1020.86 1020.81 1020.87 1021.08 1021.45 1021.54 1022.22 1023.24 1024.40 1025.89 1026.22 1026.02 1026.26 1026.35 1024.99 1024.19 1025.53 1026.19 1026.36 1026.39 1027.32 1027.88 1028.00 1028.52 1028.17 1027.63 1027.49 1027.57 1027.95 1027.56 1027.51 1027.47 1027.51 1027.70
1019.24 1019.22 1019.82 1019.89 1019.94 1019.91 1020.29 1020.49 1020.49 1020.83 1020.97 1021.21 1021.33 1021.87 1022.14 1021.96 1022.32 1022.84 1023.73 1025.37 1026.27 1026.56 1027.00 1027.15 1026.27 1025.59 1024.47 1025.83 1026.11 1025.83 1026.25 1026.99 1027.65 1028.20 1028.37 1028.03 1027.29 1026.99 1027.57 1027.98 1028.09 1027.85 1027.86 1027.90 1027.76
1019.53 1019.42 1019.31 1019.11 1018.89 1019.30 1019.80 1020.36 1021.01 1021.53 1021.53 1021.68 1021.81 1022.27 1022.37 1022.32 1022.76 1023.09 1023.68 1025.18 1026.30 1026.84 1027.79 1028.15 1027.07 1026.57 1026.22 1025.83 1025.59 1025.47 1026.02 1026.87 1027.50 1027.97 1027.86 1027.77 1026.96 1027.33 1027.63 1028.04 1028.07 1028.28 1028.31 1028.27 1027.73
1019.63 1019.47 1019.43 1019.98 1018.93 1018.96 1019.40 1019.95 1020.64 1021.34 1021.84 1022.00 1022.19 1022.25 1022.31 1022.41 1022.42 1022.94 1023.71 1024.65 1025.80 1027.01 1027.53 1027.55 1026.75 1026.01 1025.60 1025.17 1024.82 1025.39 1025.74 1026.19 1026.64 1027.37 1028.05 1027.09 1027.61 1027.56 1027.63 1027.89 1028.17 1028.10 1028.03 1027.90 1027.68
1020.25 1019.53 1019.70 1019.34 1019.15 1019.24 1019.98 1019.87 1020.23 1020.94 1021.60 1021.79 1022.12 1022.09 1022.69 1022.91 1023.15 1023.40 1023.74 1024.26 1024.79 1026.26 1026.71 1026.57 1026.30 1025.83 1024.89 1024.72 1025.07 1024.81 1024.86 1025.29 1025.64 1026.25 1026.84 1027.22 1027.00 1026.87 1027.10 1027.31 1027.60 1027.62 1027.70 1027.67 1027.57
1020.75 1020.14 1019.70 1019.69 1019.46 1019.27 1019.48 1019.57 1019.97 1020.98 1021.87 1021.98 1022.17 1022.53 1023.13 1023.55 1023.97 1024.22 1024.51 1024.65 1024.75 1025.19 1025.44 1025.70 1025.73 1025.53 1024.24 1024.06 1024.06 1023.51 1023.05 1023.96 1024.71 1025.45 1026.32 1026.59 1026.36 1026.59 1027.06 1027.29 1027.09 1026.92 1027.04 1027.24 1027.24
Thickness
5630 5632 5634 5636 5638 5640 5643 5645 5647 5649 5653 5656 5657 5663 5668 5667 5669 5675 5668 5662 5668 5678 5681 5691 5697 5704 5707 5704 5708 5711 5685 5686 5680 5685 5668 5672 5661 5663 5656 5636 5635 5630 5621 5623 5633
5629 5631 5633 5635 5637 5639 5642 5644 5647 5650 5655 5656 5657 5660 5666 5665 5670 5668 5665 5669 5672 5677 5681 5690 5687 5695 5695 5697 5700 5690 5681 5666 5670 5669 5664 5651 5641 5636 5637 5622 5618 5614 5616 5614 5619
5630 5631 5634 5635 5637 5639 5642 5644 5647 5649 5653 5659 5660 5662 5664 5665 5666 5655 5666 5671 5675 5677 5683 5693 5692 5691 5686 5688 5683 5676 5657 5666 5657 5659 5668 5636 5623 5619 5616 5598 5600 5595 5597 5601 5604
5631 5632 5634 5636 5637 5640 5642 5645 5647 5649 5651 5657 5663 5665 5666 5662 5633 5652 5661 5668 5675 5684 5689 5686 5687 5678 5671 5664 5673 5657 5658 5652 5643 5643 5641 5630 5616 5598 5591 5581 5588 5587 5586 5586 5588
5632 5634 5635 5637 5639 5641 5642 5645 5648 5650 5652 5656 5661 5666 5667 5653 5639 5653 5659 5667 5673 5673 5667 5667 5662 5664 5655 5657 5655 5650 5643 5640 5632 5624 5618 5615 5596 5579 5574 5572 5572 5572 5571 5569 5570
5634 5636 5637 5639 5639 5640 5641 5643 5646 5650 5650 5655 5659 5663 5657 5639 5648 5654 5656 5660 5659 5660 5656 5655 5651 5658 5651 5642 5637 5638 5634 5622 5616 5611 5603 5595 5580 5571 5553 5560 5553 5551 5550 5551 5551
5635 5637 5638 5639 5639 5640 5641 5643 5645 5647 5648 5650 5651 5655 5646 5629 5645 5653 5653 5652 5653 5651 5644 5648 5649 5639 5641 5631 5631 5627 5613 5612 5598 5587 5578 5578 5560 5534 5535 5533 5532 5531 5530 5532 5533
5635 5637 5638 5638 5639 5640 5641 5643 5644 5647 5649 5650 5650 5654 5632 5640 5645 5650 5654 5652 5650 5649 5643 5645 5639 5629 5619 5628 5618 5607 5609 5594 5593 5576 5556 5552 5526 5507 5507 5505 5502 5504 5507 5510 5511
5635 5637 5638 5638 5639 5640 5642 5643 5645 5645 5647 5651 5652 5649 5629 5640 5635 5643 5651 5645 5643 5640 5640 5637 5622 5604 5602 5606 5604 5587 5564 5563 5570 5566 5543 5529 5514 5491 5483 5477 5473 5475 5479 5483 5487
5635 5636 5637 5637 5639 5640 5641 5639 5644 5646 5651 5661 5656 5642 5631 5624 5631 5637 5647 5649 5640 5632 5621 5610 5598 5587 5578 5566 5538 5534 5534 5532 5523 5524 5509 5506 5497 5472 5446 5448 5448 5450 5450 5452 5457
5634 5635 5635 5636 5636 5637 5641 5646 5642 5636 5643 5633 5626 5625 5624 5633 5633 5627 5636 5634 5637 5623 5609 5595 5580 5566 5553 5545 5533 5530 5525 5522 5512 5493 5476 5476 5470 5443 5427 5432 5426 5426 5428 5425 5426
5633 5633 5634 5635 5635 5637 5638 5647 5648 5644 5625 5634 5632 5626 5627 5627 5616 5617 5632 5621 5615 5594 5592 5591 5558 5552 5544 5535 5521 5516 5507 5488 5477 5467 5453 5454 5454 5424 5417 5417 5413 5408 5403 5402 5403
5632 5633 5634 5634 5635 5637 5643 5645 5652 5649 5637 5628 5629 5624 5621 5622 5609 5610 5613 5615 5603 5594 5578 5561 5545 5544 5535 5523 5509 5502 5484 5468 5459 5459 5460 5452 5422 5400 5410 5408 5405 5397 5388 5384 5382
5632 5633 5634 5634 5631 5644 5642 5646 5646 5643 5638 5624 5625 5620 5624 5624 5606 5610 5605 5605 5594 5584 5580 5558 5544 5535 5524 5509 5499 5495 5481 5471 5465 5463 5449 5444 5382 5390 5399 5393 5389 5383 5378 5372 5370
5631 5634 5634 5636 5644 5644 5646 5644 5644 5641 5621 5626 5621 5626 5624 5608 5603 5600 5604 5600 5580 5573 5578 5540 5537 5526 5515 5501 5490 5476 5477 5473 5472 5462 5444 5429 5407 5367 5384 5377 5373 5370 5368 5367 5363
5630 5633 5635 5641 5643 5645 5644 5643 5640 5629 5608 5623 5626 5619 5619 5609 5601 5604 5600 5599 5588 5581 5568 5550 5538 5518 5501 5495 5483 5474 5472 5476 5471 5445 5394 5393 5396 5348 5354 5356 5363 5362 5361 5358 5357
5629 5633 5638 5641 5640 5641 5642 5640 5629 5603 5629 5627 5622 5619 5616 5602 5598 5594 5593 5577 5564 5563 5561 5557 5530 5517 5501 5485 5480 5470 5459 5437 5420 5413 5404 5390 5394 5347 5357 5359 5357 5356 5353 5349 5347
5630 5631 5633 5636 5638 5640 5641 5641 5588 5636 5632 5626 5623 5616 5607 5599 5595 5591 5585 5570 5559 5550 5553 5539 5530 5510 5493 5476 5462 5455 5437 5400 5377 5387 5396 5385 5362 5359 5351 5360 5356 5353 5347 5341 5337
5630 5636 5637 5634 5636 5639 5641 5601 5626 5641 5635 5626 5623 5620 5615 5603 5588 5591 5579 5561 5547 5539 5530 5521 5523 5512 5492 5480 5467 5450 5432 5425 5406 5406 5403 5401 5353 5343 5351 5352 5349 5345 5339 5334 5329
5634 5642 5635 5635 5636 5638 5642 5624 5627 5629 5628 5625 5621 5612 5611 5601 5595 5589 5575 5554 5545 5533 5526 5519 5509 5515 5495 5478 5468 5449 5441 5410 5406 5378 5373 5386 5381 5358 5348 5343 5342 5336 5329 5327 5323
5632 5641 5633 5636 5637 5640 5625 5627 5624 5625 5625 5619 5616 5614 5606 5595 5588 5583 5570 5554 5542 5534 5523 5519 5503 5509 5508 5474 5458 5447 5432 5416 5405 5403 5372 5367 5370 5351 5338 5342 5338 5333 5328 5321 5316
5639 5640 5635 5635 5637 5647 5630 5631 5622 5619 5617 5612 5611 5606 5599 5592 5588 5579 5565 5553 5534 5526 5520 5512 5496 5494 5502 5475 5461 5451 5438 5419 5393 5390 5383 5370 5363 5365 5348 5334 5334 5327 5324 5318 5310
5641 5639 5636 5635 5597 5616 5622 5620 5624 5618 5615 5609 5604 5597 5591 5588 5579 5574 5564 5544 5531 5524 5513 5502 5502 5494 5501 5473 5460 5456 5446 5430 5417 5400 5374 5372 5375 5372 5357 5338 5328 5322 5315 5310 5306
5639 5608 5632 5637 5640 5629 5622 5617 5609 5611 5609 5608 5603 5595 5589 5587 5581 5571 5565 5547 5531 5522 5498 5488 5495 5482 5469 5470 5470 5456 5446 5431 5415 5392 5391 5384 5387 5371 5363 5338 5329 5316 5308 5302 5303
5635 5620 5628 5586 5623 5633 5630 5624 5612 5605 5605 5604 5597 5594 5591 5583 5584 5574 5565 5552 5538 5512 5506 5498 5493 5497 5492 5488 5481 5451 5443 5436 5420 5401 5384 5391 5369 5365 5356 5334 5324 5319 5311 5305 5299
5621 5624 5625 5625 5629 5626 5611 5618 5616 5610 5604 5601 5594 5598 5589 5580 5577 5567 5564 5556 5546 5523 5513 5511 5497 5498 5494 5487 5458 5464 5457 5447 5437 5421 5404 5388 5380 5377 5367 5354 5334 5325 5312 5302 5296
5620 5624 5625 5613 5620 5621 5618 5621 5619 5611 5602 5602 5599 5593 5584 5579 5571 5565 5556 5549 5544 5532 5525 5516 5507 5499 5498 5499 5478 5475 5479 5459 5443 5431 5404 5387 5386 5382 5363 5352 5343 5333 5322 5305 5298